User: anonymous   Login
Location: Unspecified
(0.0000°N, 0.0000°E)
Time: 14:37:23
(UTC+00:00)
Language:

Polar BEAR P87-1 - Orbit

View from above orbital plane
View from above orbital plane
View from above satellite
View from above satellite

Ground track
Ground track

The orbit data is extracted from the following two-line orbital elements,

1 17070U 86088A   17084.74934062 +.00000057 +00000-0 +48171-4 0  9997
2 17070 089.5413 331.1160 0038960 001.5683 061.7898 13.74725101522291
Epoch (UTC): 25 March 2017 17:59:03
Eccentricity: 0.0038960
inclination: 89.5413°
perigee height: 954 km
apogee height: 1011 km
right ascension of ascending node: 331.1160°
argument of perigee: 1.5683°
revolutions per day: 13.74725101
mean anomaly at epoch: 61.7898°
orbit number at epoch: 52229

The dashed part of the orbit path shows where the satellite is in the earth's shadow,  

DLR